Regional Weather Roundup
Issued by NWS Charleston, WV

Home | Current Version | Previous Version | Text Only | Print | Product List | Glossary Off
Versions: 1 2 3 4 5 6 7 8 9 10 11 12 13 14 15 16 17 18 19 20 21 22 23 24 25 26 27 28 29 30 31 32 33 34 35 36 37 38 39 40 41 42 43 44 45 46 47 48 49 50

000
ASUS41 KRLX 290710
RWRRLX
West Virginia Regional Weather Roundup
National Weather Service Charleston WV
300 AM EDT WED JUL 29 2015

Note: "fair" indicates few or no clouds below 12,000 feet with no
significant weather and/or obstructions to visibility.

WVZ003-290800-
Northern Panhandle of West Virginia

CITY           SKY/WX    TMP DP  RH WIND       PRES   REMARKS
WHEELING       CLEAR     73  67  81 E5        30.00F
$$

WVZ009-290800-
Northwest West Virginia

CITY           SKY/WX    TMP DP  RH WIND       PRES   REMARKS
PARKERSBURG    CLEAR     72  69  90 CALM      30.00S FOG
$$

WVZ006-290800-
Western West Virginia

CITY           SKY/WX    TMP DP  RH WIND       PRES   REMARKS
HUNTINGTON     PTCLDY    73  72  96 CALM      29.97F
$$

WVZ015-290800-
West Central West Virginia

CITY           SKY/WX    TMP DP  RH WIND       PRES   REMARKS
CHARLESTON     PTCLDY    73  71  93 SW3       29.97F
$$

WVZ022-031-290800-
North Central West Virginia

CITY           SKY/WX    TMP DP  RH WIND       PRES   REMARKS
CLARKSBURG     CLEAR     70  69  97 CALM      29.99F
MORGANTOWN     CLEAR     74  67  78 CALM      30.01F
$$

WVZ025-035-042-045-290800-
Southern West Virginia

CITY           SKY/WX    TMP DP  RH WIND       PRES   REMARKS
BECKLEY        CLEAR     69  66  90 CALM      30.07F FOG
LOGAN          FOG       72  72 100 CALM      29.98F VSB<1/4
BLUEFIELD      CLEAR     72  67  84 W5        30.10F
LEWISBURG      CLOUDY    69  67  93 CALM      30.05F FOG
$$

WVZ047-290800-
Northern Mountains of West Virginia

CITY           SKY/WX    TMP DP  RH WIND       PRES   REMARKS
ELKINS         PTCLDY    67  65  93 CALM      30.05S FOG
$$

WVZ052-290800-
Eastern Panhandle of West Virginia

CITY           SKY/WX    TMP DP  RH WIND       PRES   REMARKS
MARTINSBURG    PTCLDY    69  68  96 E3        29.99F FOG
PETERSBURG     FOG      N/A N/A N/A CALM      30.02F VSB 3/4
$$


USA.gov is the U.S. government's official web portal to all federal, state and local government web resources and services.